AirNav   Air Wisconsin Up To $57,000 Bonus
 
 602 users online  

1I9 Delphi Municipal Airport
Delphi, Indiana, USA

GOING TO DELPHI?


FAA INFORMATION EFFECTIVE 18 JULY 2019

Location

FAA Identifier: 1I9
Lat/Long: 40-32-34.8000N / 086-40-53.3400W
40-32.580000N / 086-40.889000W
40.5430000 / -86.6814833
(estimated)
Elevation: 671 ft. / 205 m (estimated)
Variation: 02W (1985)
From city: 3 miles S of DELPHI, IN
Time zone: UTC -4 (UTC -5 during Standard Time)
Zip code: 46923

Airport Operations

Airport use: Open to the public
Activation date: 11/1969
Control tower: no
ARTCC: CHICAGO CENTER
FSS: TERRE HAUTE FLIGHT SERVICE STATION
NOTAMs facility: HUF (NOTAM-D service available)
Attendance: IRREG
Wind indicator: lighted
Segmented circle: no
Lights: ACTVT MIRL RY 18/36 - CTAF.
Beacon: white-green (lighted land airport)
Operates sunset to sunrise.

Airport Communications

CTAF: 122.9
WX AWOS-3P at MCX (11 nm N): 124.05 (574-583-0531)
WX ASOS at LAF (14 nm SW): PHONE 765-743-9687
WX AWOS-3 at FKR (17 nm S): 124.325 (765-654-0328)
WX AWOS-3P at GGP (17 nm NE): 118.5 (574-737-7310)

Nearby radio navigation aids

VOR radial/distance  VOR name  Freq  Var
BVTr092/17.7BOILER VORTAC115.1001E
GUSr258/24.9GRISSOM VORTAC108.4502W
OKKr277/28.4KOKOMO VORTAC113.5005W

 
NDB name  Hdg/Dist  Freq  Var  ID
CRAWFORDSVILLE022/35.438804WCFJ -.-. ..-. .---

Airport Services

Fuel available: 100LL
Parking: tiedowns
Airframe service: MINOR
Powerplant service: MINOR

Runway Information

Runway 18/36

Dimensions: 2898 x 60 ft. / 883 x 18 m
Surface: concrete, in good condition
Runway edge lights: medium intensity
RUNWAY 18  RUNWAY 36
Latitude: 40-32.818667N40-32.341333N
Longitude: 086-40.891667W086-40.886167W
Elevation: 670.5 ft.668.7 ft.
Traffic pattern: left
18/36 RGT TFC FOR ULTRALIGHTS.
left
Displaced threshold: 248 ft.no
Markings: basic, in good conditionbasic, in good condition
Runway end identifier lights: nono
Obstructions: 15 ft. road, 310 ft. from runway, 7:1 slope to clear
ROAD 60 FT FM RY END 1 FT ABOVE RY END.
none

Airport Ownership and Management from official FAA records

Ownership: Publicly-owned
Owner: CITY OF DELPHI
201 S. UNION ST.
DELPHI, IN 46923
Phone 765-564-2097
Manager: ED NAGLE
8296 W DIV LINE RD
DELPHI, IN 46923
Phone 765-564-4291

Airport Operational Statistics

Aircraft based on the field: 21
Single engine airplanes: 18
Multi engine airplanes: 1
Ultralights: 2
    
Aircraft operations: avg 130/week *
77% local general aviation
23% transient general aviation
* for 12-month period ending 31 December 2016

Additional Remarks

4'FENCE 100'W OF CL 200' SOUTH OF RY 18. THR WI PRIM SFC.
ARPT UNATNDD CHRISTMAS.
FOR CD CTC CHICAGO ARTCC AT 630-906-8921.

Instrument Procedures

There are no published instrument procedures at 1I9.

Some nearby airports with instrument procedures:

KMCX - White County Airport (11 nm N)
KLAF - Purdue University Airport (14 nm SW)
KFKR - Frankfort Municipal Airport (17 nm S)
KGGP - Logansport/Cass County Airport (17 nm NE)
KGUS - Grissom Air Reserve Base (25 nm E)
 
Loc | Ops | Rwys | IFR | FBO | Links
Com | Nav | Svcs | Stats | Notes

City of Findlay
 
Area around 1I9 (Delphi Municipal Airport)
 
Road maps at: MapQuest Bing Google
 
Aerial photo
WARNING: Photo may not be current or correct
Aerial photo of 1I9 (Delphi Municipal Airport)
Photo taken 17-Aug-2008

Do you have a better or more recent aerial photo of Delphi Municipal Airport that you would like to share? If so, please send us your photo.

 
Sectional chart

 
Airport distance calculator
Flying to Delphi Municipal Airport? Find the distance to fly.

From to 1I9

Sunrise and sunset
Times for 20-Jul-2019
 Local
(UTC-4)
 Zulu
(UTC)
Morning civil twilight06:0210:02
Sunrise06:3410:34
Sunset21:1201:12
Evening civil twilight21:4401:44

Current date and time
Zulu (UTC)  20-Jul-2019 10:56:04
Local (UTC-4)  20-Jul-2019 06:56:04
 
METAR
KMCX 
11nm N 
201035Z AUTO 16003KT 10SM SCT047 SCT050 25/24 A2997 RMK AO2 T02520236
KLAF 
14nm SW 
200954Z AUTO 00000KT 10SM CLR 24/23 A2997 RMK AO2 SLP141 T02440233
KFKR 
17nm S 
201035Z AUTO 00000KT 7SM BKN110 25/23 A3002 RMK AO2 T02480232 TSNO
KGGP 
17nm NE 
201035Z AUTO 14003KT 7SM SCT046 22/22 A2999 RMK AO2
TAF
KLAF 
14nm SW 
200520Z 2006/2106 19004KT P6SM SKC FM201600 22007G15KT P6SM SCT250 AMD LTD TO CLD VIS AND WIND TIL 201300
NOTAMs
Click for the latest NOTAMs
NOTAMs are issued by the DoD/FAA and will open in a separate window not controlled by AirNav.

 

 
 

FBO, Fuel Providers, and Aircraft Ground Support

  
 Business Name 
 
 Contact 
 
 Services / Description 
 
Fuel Prices
 
Comments
  
Delphi Municipal Airport 765-564-4291
no information available

If you are affiliated with Delphi Municipal Airport and would like to show here your services, contact info, web link, logo, and more, click here
100LL
SS $4.40 
 Updated 27-Jun-2019
 
   2 read write
SS=Self service
Update Fuel Prices
 

Would you like to see your business listed on this page?

 If your business provides an interesting product or service to pilots, flight crews, aircraft, or users of the Delphi Municipal Airport, you should consider listing it here.  To start the listing process, click on the button below
 
Add a business
 

Other Pages about Delphi Municipal Airport

www.delphimunicipalairport.com
 
Update a link
 
Copyright © AirNav, LLC. All rights reserved. Privacy Policy  Contact